CAPE
849 829 1125 931 996 998 959 884 715 1174 1015 705 376 124 3 71 884 1439 1250 1209 1127 1097 1057 858 970 576 763 456 284 98 0 2 56 176 271 171 48 36 5 1 0 0 1
1093 1101 1036 1156 1024 902 791 660 566 580 867 817 699 673 637 1150 1440 1177 1143 1464 1201 1104 1055 1133 1039 1354 1037 708 171 62 481 66 174 99 0 0 115 10 1 1 2 2 0
1379 1442 1199 1027 1033 963 895 779 542 452 527 776 875 721 635 536 906 1515 1379 1228 1195 1088 964 1084 1081 870 1012 973 1101 574 447 577 193 80 0 0 67 2 3 5 1 0 0
1463 1518 1470 1320 1317 1239 1233 1189 938 644 503 567 719 899 1012 996 875 1170 1541 1582 1346 1174 1100 1266 1389 1096 868 887 823 981 444 377 95 14 57 111 196 3 2 1 1 0 0
1377 1400 1627 1493 1611 1547 1434 1409 1215 1091 1042 957 1140 1291 1224 1295 1310 1056 961 1128 1238 1180 980 1177 1367 1504 1335 856 852 886 546 270 257 60 152 427 453 23 1 2 1 0 1
1128 1343 1190 1468 1438 1487 1530 1413 1444 1692 1621 1374 1411 1597 1693 1646 1673 1609 1317 949 901 1085 1082 1025 1144 1362 1340 1012 755 996 689 448 289 116 101 383 510 143 11 1 0 1 1
1256 1216 1334 1301 1615 1677 1594 1729 1755 1775 1901 2048 1875 1706 1723 1643 1839 1640 1205 635 669 657 839 952 1014 1261 1339 1298 1118 712 426 378 775 335 207 353 247 208 26 1 1 0 0
1940 2117 2098 2015 1879 1895 2109 2054 1971 1919 1947 1989 1948 1880 1679 1545 1283 1550 710 137 357 433 507 652 966 1071 767 882 775 902 381 340 263 362 393 209 210 87 0 0 0 0 0
2510 2365 2455 2948 3101 2998 2871 2754 2586 2397 1333 898 777 527 637 640 543 651 440 0 34 231 421 392 576 828 956 913 478 850 785 494 137 76 131 133 261 107 24 0 0 0 1
2607 2919 2933 3007 2854 2329 1096 958 357 293 223 167 91 24 5 4 0 0 3 84 395 360 376 360 445 613 789 756 204 417 387 522 330 3 1 1 0 0 0 1 0 0 0
2861 2738 2090 1347 751 348 161 119 43 0 0 0 0 0 0 0 0 0 1 1 36 373 542 621 382 641 454 88 0 323 369 372 342 153 51 6 27 39 7 10 0 0 0
1726 1138 622 431 345 30 1 0 0 0 0 0 0 0 0 0 0 0 0 0 0 1 21 97 120 1 0 0 1 0 30 0 177 148 84 76 42 47 88 31 0 1 0
735 194 43 11 0 0 0 0 0 0 0 0 0 0 0 0 0 0 0 0 0 1 2 2 1 1 1 1 1 1 1 1 1 1 141 165 140 103 15 1 1 1 0
379 109 0 0 0 0 0 0 0 0 0 0 0 0 0 0 0 0 0 0 0 0 0 0 1 1 1 1 1 1 1 1 1 1 19 12 1 1 1 0 0 0 0
272 73 18 1 0 0 0 0 0 0 0 0 0 0 0 0 0 0 1 0 1 1 0 0 3 9 9 1 1 1 1 1 1 1 1 1 1 1 0 0 0 0 0
213 84 52 0 0 0 0 0 0 0 1 0 0 0 0 0 1 1 1 1 1 0 0 1 1 6 18 22 14 5 1 1 1 1 1 1 1 0 0 0 0 0 0
169 51 53 3 0 0 0 0 0 0 1 0 0 0 1 1 2 2 2 2 1 0 0 1 2 4 6 1 2 1 4 0 0 1 1 1 1 1 0 0 0 0 0
101 131 19 5 0 0 0 0 0 0 0 0 0 1 0 0 1 1 0 1 0 0 1 1 1 1 0 1 1 1 1 1 1 1 1 1 1 0 0 0 1 0 0
31 63 3 9 1 1 0 0 0 0 0 0 0 0 0 0 0 0 0 0 0 0 1 1 1 1 1 0 0 0 1 0 0 1 1 1 1 0 1 1 1 1 1
45 20 2 0 0 0 0 0 0 0 0 0 0 0 0 0 0 0 0 0 0 0 0 1 1 1 1 1 1 0 0 1 1 1 1 1 1 0 1 1 1 1 5
33 0 0 0 0 0 0 0 0 0 0 0 0 0 0 0 0 0 0 0 0 0 0 0 0 0 0 0 0 0 1 1 1 1 1 1 0 1 1 1 0 0 0
0 0 0 0 0 0 0 0 0 0 0 0 0 0 0 0 0 0 0 0 0 0 0 0 0 0 0 0 0 0 0 0 0 0 0 0 0 0 0 0 0 0 0
1 6 0 0 0 0 0 0 0 0 0 0 0 0 0 0 0 0 0 0 0 0 0 0 0 0 0 0 0 0 0 0 0 0 0 0 0 0 0 0 0 0 0
203 61 53 23 0 0 0 0 0 0 0 0 0 0 0 0 0 0 0 0 0 0 0 0 0 0 0 0 0 0 0 0 0 0 0 0 0 0 0 0 0 0 0
23 0 5 11 15 13 0 4 2 0 0 0 0 0 0 0 0 0 0 0 0 0 0 0 0 0 0 0 0 0 0 0 0 0 0 0 0 0 0 0 0 0 0
0 0 0 6 12 6 10 15 5 0 3 0 0 0 0 0 0 0 0 0 0 0 0 0 0 2 2 0 0 0 0 0 0 0 0 0 0 0 0 0 0 0 0
CIN
-167 -142 -89 -114 -103 -105 -95 -103 -115 -92 -104 -132 -165 -214 -200 -160 -120 -72 -69 -60 -63 -71 -87 -102 -81 -125 -96 -180 -216 -253 0 -65 -178 -181 -151 -148 -197 -200 0 0 0 0 0
-160 -137 -124 -110 -121 -127 -137 -138 -142 -122 -114 -124 -135 -151 -154 -105 -70 -81 -70 -44 -58 -61 -72 -77 -81 -59 -90 -126 -233 -231 -131 -254 -165 -169 0 0 -145 -210 0 0 0 0 0
-174 -140 -151 -164 -158 -157 -169 -182 -199 -176 -150 -140 -126 -147 -148 -158 -110 -68 -70 -70 -75 -73 -76 -74 -72 -72 -60 -85 -75 -146 -145 -153 -208 -210 0 0 -142 0 0 0 0 0 0
-194 -159 -156 -176 -171 -166 -165 -159 -177 -192 -196 -183 -168 -134 -125 -124 -128 -100 -63 -62 -76 -75 -74 -64 -55 -73 -85 -76 -81 -76 -132 -146 -236 -272 -174 -153 -93 0 0 0 0 0 0
-233 -220 -192 -189 -179 -178 -195 -171 -168 -164 -169 -161 -145 -135 -134 -116 -102 -111 -107 -80 -66 -73 -103 -87 -66 -60 -55 -98 -77 -75 -126 -149 -143 -182 -125 -85 -66 -190 0 0 0 0 0
-271 -242 -267 -237 -227 -211 -184 -170 -149 -121 -131 -148 -145 -109 -92 -95 -67 -62 -72 -95 -85 -62 -63 -73 -66 -36 -42 -68 -100 -76 -119 -147 -124 -150 -138 -85 -90 -152 -189 0 0 0 0
-275 -288 -274 -261 -215 -188 -173 -144 -125 -112 -106 -91 -94 -90 -89 -105 -64 -69 -79 -149 -133 -136 -103 -89 -74 -37 -40 -51 -51 -92 -166 -182 -65 -122 -123 -106 -131 -150 -143 0 0 0 0
-268 -237 -209 -204 -188 -179 -139 -112 -99 -94 -75 -59 -50 -60 -80 -106 -121 -80 -164 -234 -184 -181 -162 -136 -85 -62 -101 -80 -91 -67 -147 -171 -194 -170 -139 -156 -159 -189 0 0 0 0 0
-206 -196 -163 -104 -83 -72 -65 -57 -57 -61 -147 -180 -176 -193 -152 -169 -168 -128 -164 0 -109 -171 -151 -155 -116 -81 -79 -72 -115 -58 -70 -139 -253 -269 -236 -238 -157 -197 -212 0 0 0 0
-213 -148 -114 -93 -82 -126 -277 -272 -366 -337 -322 -331 -349 -383 -415 -372 0 0 -25 -156 -72 -76 -100 -117 -105 -78 -75 -77 -148 -94 -82 -99 -167 -27 -29 0 0 -2 0 -155 0 0 0
-184 -158 -222 -324 -416 -494 -530 -543 -600 0 0 0 0 0 0 0 0 0 0 0 -90 -24 -15 -31 -78 -57 -71 -113 0 -98 -97 -93 -115 -176 -228 -174 -234 -221 -217 -226 0 0 0
-320 -410 -487 -508 -497 -676 -98 0 0 0 0 0 0 0 0 0 0 0 0 0 0 0 -39 -68 -78 0 0 0 0 0 -61 0 -119 -144 -168 -193 -204 -195 -157 -194 0 0 0
-511 -679 -720 -717 -64 0 0 0 0 0 0 0 0 0 0 0 0 0 0 0 0 0 0 0 0 0 0 0 0 0 0 0 0 0 -95 -129 -153 -156 -143 0 0 0 0
-590 -684 0 0 0 0 0 0 0 0 0 0 0 0 0 0 0 0 0 0 0 0 0 0 0 0 0 -75 -10 0 0 0 0 0 -86 -72 0 0 0 0 0 0 0
-599 -655 -637 -274 0 0 0 0 0 0 0 0 0 0 0 0 0 0 0 0 0 0 0 0 -14 -64 -28 0 0 0 0 0 0 0 0 0 0 0 0 0 0 0 0
-514 -579 -587 0 0 0 0 0 0 0 0 0 0 0 0 0 0 0 0 0 0 0 0 0 0 -57 -31 -44 -67 -71 -5 -41 0 -16 0 0 0 0 0 0 0 0 0
-484 -584 -546 -566 0 0 0 0 0 0 0 0 0 0 0 0 0 0 0 0 0 0 0 0 0 0 -92 -67 -40 -70 -106 -3 -4 0 0 0 0 0 0 0 0 0 0
-452 -410 -524 -385 0 0 0 0 0 0 0 0 0 0 0 0 0 0 0 0 0 0 0 0 0 0 0 0 0 0 0 0 0 0 0 0 0 0 0 0 0 0 0
-412 -386 -167 -329 -58 -36 0 0 0 0 0 0 0 0 0 0 0 0 0 0 0 0 0 0 0 0 0 0 0 0 0 0 0 0 0 0 0 0 0 0 0 0 0
-332 -284 -79 -13 0 0 0 0 0 0 0 0 0 0 0 0 0 0 0 0 0 0 0 0 0 0 0 0 0 0 0 0 0 0 0 0 0 0 0 0 0 0 0
-223 0 0 0 0 0 0 0 -2 0 0 0 0 0 0 0 0 0 0 0 0 0 0 0 0 0 0 0 0 0 0 0 0 0 0 0 0 0 0 0 0 0 0
0 0 0 0 0 0 0 0 0 0 0 0 0 0 0 0 0 0 0 0 0 0 0 0 0 0 0 0 0 0 0 0 0 0 0 0 0 0 0 0 0 0 0
-100 -164 0 0 0 0 0 0 0 0 0 0 0 0 0 0 0 0 0 0 0 0 0 0 0 0 0 0 0 0 0 0 0 0 0 0 0 0 0 0 0 0 0
-95 -129 -127 -136 0 0 0 0 0 0 0 0 0 0 0 0 0 0 0 0 0 0 0 0 0 0 0 0 0 0 0 0 0 0 0 0 0 0 0 0 0 0 0
-120 0 -126 -128 -134 -178 -24 -189 -157 0 0 0 0 0 0 0 0 0 0 0 0 0 0 0 0 0 0 0 0 0 0 0 0 0 0 0 0 0 0 0 0 0 0
0 0 0 -154 -148 -195 -173 -178 -168 0 -148 -1 0 0 0 0 0 0 0 0 0 0 0 0 0 -225 -268 -76 0 0 0 0 0 0 0 0 0 0 0 0 0 0 0
Wind_Speed
10 10 8 8 7 6 6 6 5 3 4 6 5 5 6 5 6 5 5 5 5 5 4 4 5 4 4 3 2 3 4 5 5 2 2 5 5 10 6 5 4 4 3
11 9 10 8 6 7 7 7 6 7 5 6 6 6 6 6 6 6 6 5 6 6 6 5 6 3 5 5 5 6 5 5 4 3 0 1 1 7 7 9 5 4 3
10 10 9 9 9 9 8 7 6 7 7 6 6 7 7 7 6 6 6 6 6 7 7 6 7 5 6 4 4 4 3 3 3 4 3 3 2 5 6 5 4 4 3
10 10 10 10 11 9 8 7 7 7 7 7 7 7 7 7 6 6 6 6 6 7 7 7 7 6 7 6 5 6 4 4 3 3 4 4 3 5 5 6 3 2 4
11 9 11 10 9 9 8 8 8 7 7 7 6 7 7 6 6 7 7 7 7 7 7 7 7 8 11 9 5 6 7 5 4 5 3 3 5 5 7 4 4 4 2
11 12 9 8 8 9 8 8 7 7 7 7 7 7 7 6 9 13 10 7 7 7 8 7 7 10 10 12 12 13 10 7 7 5 4 5 9 7 8 8 5 5 4
11 9 9 9 9 8 8 7 7 7 6 6 7 7 8 8 11 13 12 6 7 7 7 7 7 7 9 7 10 11 11 13 9 8 6 7 8 11 10 9 9 8 5
9 8 9 9 9 7 7 7 7 5 7 5 6 7 6 6 8 10 9 6 7 8 8 7 8 9 8 8 7 6 7 7 8 5 7 7 9 13 16 15 13 6 4
9 8 7 7 7 7 7 8 5 4 2 2 1 2 3 5 7 8 5 5 6 9 8 8 8 9 9 13 6 7 7 7 5 10 9 9 10 18 15 9 9 9 3
8 7 7 7 7 5 6 5 3 3 3 3 3 3 5 6 8 10 9 3 6 6 7 8 12 12 11 13 9 8 7 8 6 5 4 5 7 12 22 16 12 12 5
7 6 5 5 7 8 6 4 5 5 5 4 3 4 5 4 6 9 10 3 5 6 6 6 5 12 13 11 11 7 10 7 8 8 6 4 4 6 9 8 11 11 9
9 10 7 6 4 5 7 5 6 5 5 4 4 4 4 5 6 7 6 5 7 4 7 5 5 3 2 5 6 12 9 4 4 6 4 5 6 7 8 10 9 9 8
12 11 9 7 6 4 6 6 5 5 4 3 3 3 4 3 4 7 6 9 9 5 4 6 3 5 7 5 5 5 5 4 5 4 6 5 6 7 7 5 6 8 5
11 11 8 8 6 5 4 5 5 4 3 2 3 4 4 5 4 4 3 5 8 6 4 5 7 6 7 5 3 4 3 4 4 4 4 2 3 4 5 5 4 5 3
9 8 6 5 6 5 4 4 4 2 3 3 3 2 4 6 5 5 7 6 5 4 5 3 3 2 3 3 3 4 3 4 4 3 3 4 4 5 4 4 3 4 4
9 6 6 5 4 4 4 3 7 3 3 3 4 3 3 9 14 13 12 14 13 9 4 3 4 4 4 3 3 3 3 4 4 4 3 4 5 6 5 4 3 5 7
9 7 5 5 5 6 4 5 5 3 6 9 8 8 9 13 15 14 13 11 7 4 2 3 4 3 3 3 3 3 3 3 3 4 4 5 5 6 6 7 7 7 6
7 9 7 6 5 5 6 5 4 4 4 3 5 8 8 8 10 11 11 6 3 2 2 3 2 3 2 2 2 2 2 2 2 2 2 3 3 4 3 4 5 6 5
5 6 6 6 6 6 5 4 4 5 4 3 2 3 6 8 9 7 7 3 3 3 3 3 3 3 2 2 2 2 2 2 2 2 2 2 3 3 3 3 4 6 6
6 9 6 6 5 4 4 4 4 5 5 4 4 5 2 2 3 3 2 2 2 3 3 3 3 3 2 2 2 2 2 1 1 2 2 3 3 3 4 5 5 6 5
4 5 6 4 5 4 4 5 5 6 6 5 6 6 9 4 4 3 3 2 3 1 2 1 1 2 2 3 3 3 3 2 3 3 3 4 4 4 4 5 5 6 6
5 4 4 5 4 4 3 4 5 5 6 6 5 5 8 4 4 4 5 4 4 4 3 2 1 1 0 1 1 2 2 2 3 3 4 4 4 5 4 5 5 4 4
4 5 5 4 5 3 3 4 4 5 6 8 7 5 5 6 5 5 6 5 4 4 3 3 3 3 3 3 3 4 4 3 3 3 3 4 4 4 4 3 4 3 2
5 4 6 6 4 4 5 5 5 6 6 5 5 6 6 6 6 7 6 5 4 4 4 4 4 5 5 5 4 4 4 4 3 4 6 4 4 5 4 3 4 4 4
5 6 6 6 6 6 5 5 5 6 5 5 5 5 5 5 5 5 6 5 5 5 7 7 6 7 9 9 7 8 8 10 7 6 4 5 6 7 4 4 4 4 6
6 6 5 5 6 6 6 7 6 5 5 4 4 3 4 5 5 5 5 5 5 5 6 6 8 10 10 9 11 12 10 12 10 11 6 5 5 5 4 5 7 4 5
Wind_Direction
188 185 186 194 192 189 199 216 216 211 202 204 206 198 232 236 234 213 213 218 220 253 263 238 247 213 201 222 238 169 206 204 198 238 132 156 161 156 148 119 117 120 100
187 183 190 191 188 200 212 217 217 221 199 198 205 201 218 229 230 227 230 225 226 241 255 251 247 236 225 217 177 210 225 174 151 196 122 109 208 163 156 142 147 135 105
180 182 188 195 199 212 216 212 215 222 224 215 209 217 224 234 235 231 224 229 221 225 236 244 250 222 248 222 226 198 196 189 208 146 166 201 141 154 153 127 127 124 142
182 191 194 199 201 207 210 209 211 215 222 228 226 231 230 234 233 237 231 246 246 231 228 227 238 231 235 232 219 215 198 185 150 152 196 169 155 155 149 149 158 156 165
181 185 202 203 199 201 196 208 218 219 223 222 228 235 233 230 235 232 238 237 234 242 239 235 233 229 228 220 196 225 173 181 180 193 222 167 160 158 177 163 168 155 182
191 200 192 187 194 201 204 201 203 219 225 223 223 221 226 236 233 228 222 229 239 237 245 239 229 232 239 234 224 229 200 177 191 173 201 192 191 188 171 176 158 168 195
199 199 193 195 198 201 202 204 210 218 218 226 229 226 236 237 234 238 237 231 237 241 233 237 243 243 224 227 233 234 231 216 184 175 178 188 176 186 178 179 193 194 193
197 192 198 199 200 195 186 199 211 218 218 214 235 233 251 257 249 248 250 239 247 251 247 242 233 243 230 221 220 227 228 223 225 207 201 197 187 178 185 190 190 162 76
193 196 188 180 174 174 185 193 196 155 92 112 83 17 318 304 320 312 321 227 238 249 248 242 235 239 229 227 219 225 229 236 234 242 241 232 199 173 174 154 167 167 165
184 182 178 182 172 150 109 107 94 108 102 77 24 355 319 305 310 299 297 253 254 251 255 248 236 237 227 217 204 227 233 232 185 207 236 246 222 187 175 184 172 187 155
149 138 119 113 119 122 115 102 104 97 86 61 24 341 339 343 330 356 3 318 274 263 255 255 247 233 237 237 219 214 225 228 203 203 210 207 182 187 191 205 191 189 181
126 119 120 116 120 125 115 103 92 91 80 48 8 341 329 334 353 346 355 13 334 278 275 268 254 227 278 235 195 229 247 255 207 201 193 203 188 195 198 199 196 211 208
132 130 125 114 121 129 119 113 93 81 76 36 14 335 315 312 302 306 330 333 325 321 278 287 241 225 276 243 208 206 190 206 220 211 228 213 201 197 176 165 182 210 188
137 126 125 130 143 133 114 115 107 93 72 36 343 321 313 306 301 297 311 317 312 304 344 318 286 248 250 250 185 180 193 193 210 220 228 211 139 151 171 155 166 163 140
126 120 123 139 144 126 99 115 125 136 154 172 234 248 300 307 298 296 300 296 289 284 327 279 279 244 245 226 224 233 201 198 203 199 199 186 187 179 191 173 152 168 181
128 130 148 158 143 132 144 123 40 119 171 272 294 275 283 264 289 292 291 286 273 258 213 228 253 250 247 242 241 236 215 208 210 199 207 209 189 192 190 179 166 193 203
143 142 156 158 153 161 175 160 167 253 262 269 268 267 256 269 302 303 303 299 290 168 245 256 259 243 239 235 240 235 227 224 215 203 201 214 204 205 191 200 204 203 199
132 171 168 174 176 188 182 190 173 170 208 266 268 234 277 290 296 301 331 328 353 347 342 343 341 345 335 303 292 274 258 242 239 213 200 195 190 187 179 196 197 205 190
169 189 180 174 174 188 169 175 180 184 210 221 266 292 271 290 301 311 342 26 358 352 345 348 354 342 353 13 9 334 303 261 248 216 214 195 187 173 172 164 160 166 141
193 167 161 162 183 186 166 182 195 190 200 207 223 233 266 327 323 317 335 346 7 3 350 355 359 351 349 20 48 103 96 109 125 107 110 98 98 120 127 128 126 124 129
171 155 162 180 191 194 190 197 206 195 206 204 220 224 208 199 252 272 292 309 296 270 280 283 17 8 4 29 47 36 39 60 79 79 79 81 87 91 85 92 89 86 103
150 169 193 206 219 215 203 214 219 194 204 216 220 236 191 231 234 260 268 257 245 243 234 244 228 185 242 146 118 66 31 49 78 85 97 94 89 84 84 84 87 92 89
167 188 198 219 228 213 194 216 208 198 221 228 216 201 189 225 235 238 243 240 221 229 229 217 229 238 216 226 213 168 170 197 165 122 112 114 113 111 112 117 132 131 150
190 180 214 216 222 216 223 219 220 211 216 201 198 206 206 212 221 240 248 226 206 206 209 219 227 217 222 223 221 203 200 197 188 177 157 153 165 166 160 167 181 199 196
187 195 215 215 213 221 212 228 227 234 210 200 210 218 217 223 230 232 236 223 198 193 214 215 219 221 220 218 219 220 216 213 204 193 183 180 193 203 207 219 213 203 199
195 206 199 219 213 201 199 218 225 231 239 224 224 237 227 231 235 239 245 234 221 211 217 216 222 216 219 225 225 224 213 209 210 214 196 200 220 227 210 215 213 203 203